Location: Newark
(48.8833°N, 0.9236°W)
Time: 07:26:53
(UTC+00:00)

Tiros 1 despin weight - Pass Details

Date: 25 November 2019
Orbit: 594 x 642 km, 48.2° (Epoch: 10 December)

Event Time Altitude Azimuth Distance (km) Brightness Sun altitude
Rises 14:10:48 0° 273° (W) 2,829 ? 13.7°
Reaches altitude 10° 14:13:04 10° 273° (W) 1,928 ? 13.5°
Maximum altitude 14:17:30 80° 186° (S) 610 ? 13.1°
Drops below altitude 10° 14:21:56 10° 100° (E) 1,941 ? 12.6°
Sets 14:24:15 0° 100° (E) 2,850 ? 12.4°
